Location: Burzi?i
(45.0869°N, 16.0577°E)
Time: 12:13:40
(UTC+00:00)

Cosmos 2263 Rocket - Pass Details

Date: 29 October 2020
Orbit: 822 x 850 km, 71.0° (Epoch: 27 November)

Event Time Altitude Azimuth Distance (km) Brightness Sun altitude
Rises 18:38:40 0° 333° (NNW) 3,422 5.9 -30.6°
Reaches altitude 10° 18:41:07 10° 334° (NNW) 2,484 5.0 -31.1°
Enters shadow 18:45:10 48° 333° (NNW) 1,100 2.9 -31.8°
